Volver al catálogo

STARLINK-32446

ActivoComunicacionesVLEO
NORAD 61262·PAYLOAD·🇺🇸 United States

Lanzado Sep 25, 2024 desde Vandenberg Space Force Base

Loading…

Próximos Pases (próximas 24 horas)

TLE

ActualizadoSource: CelesTrak SupGP

Época: Sep 14, 2026, 22:17 UTC

1 61262C 24175V   26257.92895833  .00019488  00000+0  57597-3 0  2577
2 61262  53.1600  31.4804 0001239  80.9017  48.7711 15.34370038    17

Sigue STARLINK-32446 en tiempo real con AllMySat

Download on the App Store